Location: Krasnoyarskiy Pitomnik
(51.1333°N, 71.6167°E)
Time: 10:15:03
(UTC+00:00)

Resurs 01 Rocket - Pass Details

Date: 22 October 2021
Orbit: 635 x 643 km, 97.9° (Epoch: 06 December)

Event Time Altitude Azimuth Distance (km) Brightness Sun altitude
Exits shadow 15:54:51 14° 342° (NNW) 1,789 4.3 -35.6°
Drops below altitude 10° 15:55:28 10° 343° (NNW) 2,041 4.7 -35.6°
Sets 15:57:42 0° 345° (NNW) 2,956 5.6 -35.9°
